• In Russia
  • List of Countries
  • For 7 days
  • Water Temperature
  • Satellite Maps
  • Weather Map
  • Weather Widgets
  • user-avatar
    Login

    Hourly Weather Galata

    Today, 20 July, Saturday

    Time Temperature Precipitation Wind Pressure Humidity
    00:00 +20°C° 0 mm 1 mps 757 mmHg 78%
    01:00 +20°C° 0 mm 1 mps 757 mmHg 78%
    02:00 +18°C° 0 mm 0 mps 757 mmHg 80%
    03:00 +20°C° 0 mm 1 mps 757 mmHg 79%
    04:00 +20°C° 0 mm 1 mps 757 mmHg 79%
    05:00 +19°C° 0 mm 1 mps 757 mmHg 79%
    06:00 +22°C° 0 mm 1 mps 757 mmHg 71%
    07:00 +24°C° 0 mm 1 mps 757 mmHg 62%
    08:00 +26°C° 0 mm 2 mps 758 mmHg 54%
    09:00 +27°C° 0 mm 2 mps 758 mmHg 50%
    10:00 +28°C° 0 mm 3 mps 758 mmHg 46%
    11:00 +30°C° 0 mm 4 mps 758 mmHg 42%
    12:00 +30°C° 0 mm 4 mps 758 mmHg 41%
    13:00 +30°C° 0 mm 4 mps 758 mmHg 41%
    14:00 +30°C° 0 mm 4 mps 757 mmHg 40%
    15:00 +30°C° 0 mm 4 mps 757 mmHg 42%
    16:00 +29°C° 0 mm 4 mps 757 mmHg 44%
    17:00 +28°C° 0 mm 4 mps 757 mmHg 46%
    18:00 +26°C° 0 mm 3 mps 757 mmHg 55%
    19:00 +25°C° 0 mm 3 mps 758 mmHg 64%
    20:00 +23°C° 0 mm 2 mps 758 mmHg 72%
    21:00 +22°C° 0 mm 1 mps 758 mmHg 75%
    22:00 +22°C° 0 mm 1 mps 758 mmHg 78%
    23:00 +19°C° 0 mm 0 mps 758 mmHg 80%

    Tomorrow, 21 July, Sunday

    Time Temperature Precipitation Wind Pressure Humidity
    00:00 +21°C° 0 mm 1 mps 758 mmHg 80%
    01:00 +21°C° 0 mm 1 mps 758 mmHg 80%
    02:00 +20°C° 0 mm 1 mps 758 mmHg 80%
    03:00 +20°C° 0 mm 1 mps 758 mmHg 77%
    04:00 +20°C° 0 mm 1 mps 757 mmHg 75%
    05:00 +20°C° 0 mm 1 mps 757 mmHg 72%
    06:00 +22°C° 0 mm 1 mps 757 mmHg 65%
    07:00 +24°C° 0 mm 1 mps 758 mmHg 57%
    08:00 +27°C° 0 mm 1 mps 758 mmHg 50%
    09:00 +28°C° 0 mm 1 mps 758 mmHg 46%
    10:00 +30°C° 0 mm 2 mps 758 mmHg 42%
    11:00 +31°C° 0 mm 2 mps 758 mmHg 38%
    12:00 +31°C° 0 mm 2 mps 758 mmHg 37%
    13:00 +31°C° 0 mm 3 mps 758 mmHg 36%
    14:00 +33°C° 0 mm 3 mps 757 mmHg 36%
    15:00 +31°C° 0 mm 3 mps 757 mmHg 38%
    16:00 +30°C° 0 mm 4 mps 757 mmHg 40%
    17:00 +29°C° 0 mm 4 mps 757 mmHg 42%
    18:00 +27°C° 0 mm 3 mps 757 mmHg 51%
    19:00 +25°C° 0 mm 2 mps 757 mmHg 60%
    20:00 +23°C° 0 mm 2 mps 757 mmHg 70%
    21:00 +23°C° 0 mm 2 mps 757 mmHg 71%
    22:00 +22°C° 0 mm 1 mps 757 mmHg 72%
    23:00 +22°C° 0 mm 1 mps 758 mmHg 74%

    Day after tomorrow, 22 July, Monday

    Time Temperature Precipitation Wind Pressure Humidity
    00:00 +22°C° 0 mm 1 mps 757 mmHg 69%
    01:00 +22°C° 0 mm 1 mps 757 mmHg 65%
    02:00 +22°C° 0 mm 1 mps 757 mmHg 60%
    03:00 +22°C° 0 mm 1 mps 757 mmHg 58%
    04:00 +22°C° 0 mm 1 mps 757 mmHg 56%
    05:00 +22°C° 0 mm 1 mps 757 mmHg 54%
    06:00 +24°C° 0 mm 1 mps 757 mmHg 49%
    07:00 +26°C° 0 mm 1 mps 757 mmHg 44%
    08:00 +28°C° 0 mm 1 mps 757 mmHg 38%
    09:00 +30°C° 0 mm 2 mps 757 mmHg 36%
    10:00 +32°C° 0 mm 2 mps 757 mmHg 34%
    11:00 +34°C° 0 mm 3 mps 757 mmHg 32%
    12:00 +34°C° 0 mm 3 mps 757 mmHg 31%
    13:00 +35°C° 0 mm 4 mps 756 mmHg 31%
    14:00 +35°C° 0 mm 4 mps 756 mmHg 31%
    15:00 +34°C° 0 mm 4 mps 756 mmHg 33%
    16:00 +33°C° 0 mm 5 mps 755 mmHg 35%
    17:00 +32°C° 0 mm 5 mps 755 mmHg 37%
    18:00 +29°C° 0 mm 5 mps 755 mmHg 43%
    19:00 +27°C° 0 mm 4 mps 755 mmHg 49%
    20:00 +25°C° 0 mm 4 mps 755 mmHg 56%
    21:00 +24°C° 0.1 mm 3 mps 755 mmHg 62%
    22:00 +24°C° 0.1 mm 3 mps 755 mmHg 67%
    23:00 +23°C° 0.1 mm 2 mps 755 mmHg 73%

    23 July, Tuesday

    Time Temperature Precipitation Wind Pressure Humidity
    00:00 +21°C° 0.3 mm 2 mps 755 mmHg 79%
    01:00 +20°C° 0.3 mm 2 mps 755 mmHg 85%
    02:00 +19°C° 0.3 mm 2 mps 755 mmHg 91%
    03:00 +20°C° 0.1 mm 3 mps 755 mmHg 92%
    04:00 +20°C° 0.1 mm 3 mps 755 mmHg 92%
    05:00 +20°C° 0.1 mm 4 mps 755 mmHg 93%
    06:00 +21°C° 0.1 mm 4 mps 755 mmHg 88%
    07:00 +22°C° 0.1 mm 5 mps 755 mmHg 82%
    08:00 +23°C° 0.1 mm 5 mps 755 mmHg 77%
    09:00 +26°C° 0 mm 5 mps 755 mmHg 69%
    10:00 +27°C° 0 mm 4 mps 755 mmHg 60%
    11:00 +29°C° 0 mm 4 mps 756 mmHg 52%
    12:00 +29°C° 0.5 mm 4 mps 755 mmHg 52%
    13:00 +29°C° 0.5 mm 5 mps 755 mmHg 51%
    14:00 +29°C° 0.5 mm 5 mps 755 mmHg 50%
    15:00 +28°C° 0.3 mm 5 mps 754 mmHg 53%
    16:00 +28°C° 0.3 mm 4 mps 754 mmHg 56%
    17:00 +27°C° 0.3 mm 4 mps 754 mmHg 60%
    18:00 +26°C° 0.1 mm 3 mps 754 mmHg 63%
    19:00 +25°C° 0.1 mm 2 mps 754 mmHg 67%
    20:00 +21°C° 0.1 mm 0 mps 754 mmHg 71%
    21:00 +23°C° 0 mm 1 mps 754 mmHg 71%
    22:00 +22°C° 0 mm 1 mps 754 mmHg 72%
    23:00 +22°C° 0 mm 1 mps 754 mmHg 73%

    24 July, Wednesday

    Time Temperature Precipitation Wind Pressure Humidity
    00:00 +20°C° 0 mm 2 mps 754 mmHg 75%
    01:00 +19°C° 0 mm 3 mps 754 mmHg 76%
    02:00 +19°C° 0 mm 3 mps 754 mmHg 78%
    03:00 +18°C° 0 mm 4 mps 754 mmHg 78%
    04:00 +18°C° 0 mm 4 mps 754 mmHg 78%
    05:00 +17°C° 0 mm 4 mps 753 mmHg 79%
    06:00 +20°C° 0 mm 3 mps 754 mmHg 71%
    07:00 +22°C° 0 mm 3 mps 754 mmHg 64%
    08:00 +25°C° 0 mm 3 mps 754 mmHg 56%
    09:00 +26°C° 0 mm 3 mps 754 mmHg 51%
    10:00 +28°C° 0 mm 3 mps 754 mmHg 45%
    11:00 +30°C° 0 mm 2 mps 754 mmHg 40%
    12:00 +30°C° 0 mm 3 mps 754 mmHg 39%
    13:00 +30°C° 0 mm 4 mps 754 mmHg 39%
    14:00 +30°C° 0 mm 5 mps 754 mmHg 39%
    15:00 +29°C° 0.1 mm 5 mps 753 mmHg 41%
    16:00 +28°C° 0.1 mm 5 mps 753 mmHg 44%
    17:00 +27°C° 0.1 mm 4 mps 753 mmHg 46%
    18:00 +26°C° 0 mm 4 mps 753 mmHg 50%
    19:00 +25°C° 0 mm 4 mps 754 mmHg 54%
    20:00 +23°C° 0 mm 4 mps 754 mmHg 58%
    21:00 +22°C° 0 mm 4 mps 754 mmHg 63%
    22:00 +21°C° 0 mm 4 mps 754 mmHg 67%
    23:00 +20°C° 0 mm 5 mps 754 mmHg 72%

    25 July, Thursday

    Time Temperature Precipitation Wind Pressure Humidity
    00:00 +20°C° 0 mm 5 mps 754 mmHg 73%
    01:00 +20°C° 0 mm 6 mps 754 mmHg 74%
    02:00 +20°C° 0 mm 6 mps 754 mmHg 76%
    03:00 +20°C° 0 mm 6 mps 754 mmHg 77%
    04:00 +20°C° 0 mm 6 mps 754 mmHg 78%
    05:00 +20°C° 0 mm 6 mps 754 mmHg 80%
    06:00 +21°C° 0 mm 6 mps 755 mmHg 73%
    07:00 +23°C° 0 mm 6 mps 755 mmHg 67%
    08:00 +24°C° 0 mm 7 mps 755 mmHg 60%
    09:00 +27°C° 0 mm 6 mps 755 mmHg 54%
    10:00 +28°C° 0 mm 5 mps 756 mmHg 47%
    11:00 +30°C° 0 mm 4 mps 756 mmHg 41%
    12:00 +30°C° 0 mm 5 mps 756 mmHg 40%
    13:00 +32°C° 0 mm 5 mps 756 mmHg 40%
    14:00 +32°C° 0 mm 5 mps 755 mmHg 39%
    15:00 +30°C° 0 mm 4 mps 755 mmHg 42%
    16:00 +30°C° 0 mm 4 mps 755 mmHg 45%
    17:00 +29°C° 0 mm 3 mps 755 mmHg 48%
    18:00 +27°C° 0 mm 3 mps 755 mmHg 53%
    19:00 +26°C° 0 mm 2 mps 756 mmHg 59%
    20:00 +25°C° 0 mm 1 mps 756 mmHg 64%
    21:00 +24°C° 0 mm 2 mps 756 mmHg 67%
    22:00 +23°C° 0 mm 2 mps 756 mmHg 69%
    23:00 +23°C° 0 mm 2 mps 756 mmHg 71%
    Show more